Nelspruit, South Africa

10:20 PM SAST on September 04, 2015 (GMT +0200)
IMPUMALA11 | | Change Station
CLOSE
Current Station
Personal Weather Station
Location: Nelspruit, MPUMALANGA
Elevation: 2552 ft
Nearby Weather Stations

Elev 2552 ft 25.49 °S, 30.99 °E | Updated 0 second ago

Rain
Rain
54.7 °F
Feels Like 54.7 °F
N
0.0
Wind Variable Wind from SSW
Gusts 0.0 mph

Today
High -- | Low -- °F
--% Chance of Precip.
Yesterday
High -- | Low -- °F
Precip. -- in
6:05 AM 5:45 PM
Waning Gibbous, 56% visible
Pressure 30.51 in
Visibility -9999.0 miles
Clouds
Dew Point 51 °F
Humidity 88%
Rainfall 10.29 in
Snow Depth Not available.
UV Not available.
Pollen Not available.
Air Quality Not available.
Flu Activity Not available.
METAR FAKN 042000Z AUTO 03001KT //// // ////// 12/09 Q1033
Pressure 30.51 in
Visibility -9999.0 miles
Clouds
Dew Point 51 °F
Humidity 88%
Rainfall 10.29 in
Snow Depth Not available.
UV Not available.
Pollen Not available.
Air Quality Not available.
Flu Activity Not available.
METAR FAKN 042000Z AUTO 03001KT //// // ////// 12/09 Q1033

10-Day Weather Forecast

×

Almanac

Astronomy

Sep. 04, 2015 Rise Set
Actual Time
Civil Twilight
Nautical Twilight
Astronomical Twilight
Moon
Length of Visible Light
Length of Day
Tomorrow will be .
, % of the Moon is Illuminated

Today's Extremes

Country Highs Country Lows

Community

WunderPhotos

Upload Photos

1,852,272 photos uploaded!

WunderBlogs® & News

Nearby

Air Quality

  Air Quality AQ Index Pollutant
Not available.

Snow Depth

Station Depth Elevation

Earthquake Activity

City Distance Mag. Time & Date
Minimum magnitude displayed is 2.5.

Coastal Water Temperatures

Place Temperature

Stations

Nearby Weather Stations

Station Location Temp. Windchill Dew Point Humidity Wind Precip. Elev Updated Type